This is the latest recevied weather packets stored in our database for station/object R2AKT-13. If no packets are shown the sender has not sent any weather packets the latest 10 day(s).
| Time | Temp. | Humidity | Pressure | Rain* | Wind** | Luminosity | Snow |
|---|---|---|---|---|---|---|---|
| 1777827619 | 19.44° C | 39% | 985.9 hPa | - | 1.34 m/s, 194° | - | - |
| 1777827047 | 19.44° C | 39% | 985.9 hPa | - | 1.34 m/s, 200° | - | - |
| 1777826499 | 19.44° C | 38% | 985.8 hPa | - | 0.89 m/s, 180° | - | - |
| 1777826020 | 20° C | 37% | 985.8 hPa | - | 1.34 m/s, 200° | - | - |
| 1777825449 | 20° C | 37% | 985.8 hPa | - | 0.45 m/s, 192° | - | - |
| 1777824957 | 20° C | 36% | 985.8 hPa | - | 0.89 m/s, 199° | - | - |
| 1777824469 | 20° C | 36% | 985.9 hPa | - | 0.89 m/s, 212° | - | - |
| 1777823914 | 20.56° C | 36% | 985.8 hPa | - | 0.45 m/s, 251° | - | - |
| 1777823329 | 20.56° C | 36% | 985.8 hPa | - | 0.45 m/s, 211° | - | - |
| 1777822829 | 20.56° C | 36% | 985.8 hPa | - | 0.89 m/s, 209° | - | - |
| 1777822296 | 20.56° C | 36% | 985.9 hPa | - | 0.45 m/s, 174° | - | - |
| 1777821714 | 20.56° C | 35% | 986 hPa | - | 0.45 m/s, 219° | - | - |
| 1777821219 | 20.56° C | 36% | 986 hPa | - | 0.89 m/s, 240° | - | - |
| 1777820654 | 20.56° C | 36% | 986.1 hPa | - | 0.45 m/s, 195° | - | - |
| 1777820054 | 21.11° C | 35% | 986.2 hPa | - | 1.34 m/s, 248° | - | - |
| 1777819569 | 21.11° C | 35% | 986.1 hPa | - | 0.45 m/s, 263° | - | - |
| 1777819034 | 21.11° C | 34% | 986.1 hPa | - | 0 m/s | - | - |
| 1777818439 | 21.11° C | 34% | 986.3 hPa | - | 0.45 m/s, 257° | - | - |
| 1777817854 | 21.67° C | 34% | 986.4 hPa | - | 0.45 m/s, 168° | - | - |
| 1777817294 | 21.11° C | 35% | 986.4 hPa | - | 1.34 m/s, 248° | - | - |
| 1777816784 | 21.11° C | 35% | 986.4 hPa | - | 0.89 m/s, 264° | - | - |
| 1777816184 | 22.22° C | 32% | 986.6 hPa | - | 0 m/s | - | - |
| 1777815634 | 21.11° C | 35% | 986.6 hPa | - | 0.45 m/s, 225° | - | - |
| 1777815094 | 20.56° C | 37% | 986.6 hPa | - | 0.45 m/s, 256° | - | - |
| 1777814609 | 21.67° C | 34% | 986.7 hPa | - | 0.45 m/s, 240° | - | - |
* Rain since midnight (hover to see other rain measurements)
** Current wind speed in m/s (hover to see current wind gust speed)